Weather History for Portage Glacier, AK

Change the Weather History Date:

Friday, May 3, 2013

  Actual Average Record
Temperature  
Mean Temperature 36 °F -  
Max Temperature 37 °F - - ()
Min Temperature 35 °F - - ()
Degree Days  
Heating Degree Days 29    
Moisture  
Dew Point 34 °F    
Average Humidity 94    
Maximum Humidity 97    
Minimum Humidity 87    
Precipitation  
Precipitation 0.66 in - - ()
Sea Level Pressure  
Sea Level Pressure 29.95 in    
Wind  
Wind Speed 14 mph (SE)    
Max Wind Speed 17 mph    
Max Gust Speed 32 mph    
Visibility 6 miles    
Events Rain    
T = Trace of Precipitation, MM = Missing Value Source: NWS Daily Summary

Daily Weather History Graph

Daily Weather History Graph

Search for Another Location

Airport:

Trip Planner

Search our weather history database for the weather conditions in past years. The results will help you decide how hot, cold, wet, or windy it might be!

Date:

Astronomy

May. 03, 2013 Rise Set
Actual Time 5:42 AM AKDT 10:04 PM AKDT
Civil Twilight 4:44 AM AKDT 11:01 PM AKDT
Nautical Twilight 3:06 AM AKDT 12:45 AM AKDT
Astronomical Twilight Sun does not rise Sun does not rise
Moon 3:54 AM AKDT (5/3) 2:33 PM AKDT (5/3)
Length of Visible Light 18h 16m
Length of Day
16h 22m
Waning Crescent, 35% of the Moon is Illuminated
May 3
Waning Crescent
May 9
New
May 17
First Quarter
May 24
Full
May 31
Last Quarter

Hourly Weather History & Observations

Time (AKDT) Temp. Windchill Dew Point Humidity Pressure Visibility Wind Dir Wind Speed Gust Speed Precip Events Conditions
12:53 AM 36.0 °F 27.5 °F 33.1 °F 89% 29.98 in 6.0 mi SE 12.7 mph 25.3 mph 0.03 in Rain Light Rain
1:53 AM 36.0 °F 26.3 °F 33.1 °F 89% 29.98 in 6.0 mi SE 16.1 mph 32.2 mph 0.04 in Rain Light Rain
2:53 AM 35.1 °F 25.2 °F 34.0 °F 96% 29.96 in 6.0 mi SE 16.1 mph 27.6 mph 0.05 in Rain Light Rain
3:53 AM 35.1 °F 25.9 °F 34.0 °F 96% 29.96 in 8.0 mi SE 13.8 mph 24.2 mph 0.04 in Rain Light Rain
4:53 AM 35.1 °F 26.4 °F 34.0 °F 96% 29.94 in 6.0 mi SE 12.7 mph 23.0 mph 0.04 in Rain Light Rain
5:53 AM 35.1 °F 25.5 °F 34.0 °F 96% 29.93 in 6.0 mi SE 15.0 mph 31.1 mph 0.04 in Rain Light Rain
6:53 AM 36.0 °F 27.1 °F 34.0 °F 93% 29.94 in 5.0 mi SE 13.8 mph 26.5 mph 0.03 in Rain Light Rain
7:53 AM 36.0 °F 27.5 °F 35.1 °F 97% 29.93 in 3.0 mi SE 12.7 mph 24.2 mph 0.03 in Rain Light Rain
8:53 AM 36.0 °F 26.7 °F 35.1 °F 97% 29.92 in 5.0 mi SE 15.0 mph 24.2 mph 0.03 in Rain Light Rain
9:12 AM 36.0 °F 26.7 °F 35.1 °F 97% 29.91 in 4.0 mi SE 15.0 mph 25.3 mph 0.01 in Rain Light Rain
9:36 AM 36.0 °F 27.5 °F 35.1 °F 97% 29.91 in 4.0 mi SE 12.7 mph 24.2 mph 0.02 in Rain Light Rain
9:53 AM 36.0 °F 26.7 °F 35.1 °F 97% 29.92 in 4.0 mi SE 15.0 mph 24.2 mph 0.02 in Rain Light Rain
10:26 AM 37.0 °F 28.9 °F 35.1 °F 93% 29.92 in 4.0 mi SE 12.7 mph 23.0 mph 0.01 in Rain Light Rain
10:53 AM 37.0 °F 28.5 °F 35.1 °F 93% 29.93 in 5.0 mi SE 13.8 mph 25.3 mph 0.02 in Rain Light Rain
11:53 AM 37.0 °F 28.1 °F 35.1 °F 93% 29.94 in 6.0 mi SE 15.0 mph 25.3 mph 0.01 in Rain Light Rain
12:53 PM 37.9 °F 28.9 °F 36.0 °F 93% 29.94 in 4.0 mi SE 16.1 mph 27.6 mph 0.00 in Rain Light Rain
1:53 PM 37.0 °F 27.4 °F 35.1 °F 93% 29.95 in 4.0 mi SE 17.3 mph 27.6 mph 0.03 in Rain Light Rain
2:53 PM 37.0 °F 29.3 °F 35.1 °F 93% 29.97 in 5.0 mi SE 11.5 mph 24.2 mph 0.01 in Rain Light Rain
3:13 PM 37.0 °F 28.5 °F 35.1 °F 93% 29.97 in 5.0 mi SE 13.8 mph 23.0 mph 0.01 in Rain Light Rain
3:53 PM 37.0 °F 28.5 °F 35.1 °F 93% 29.97 in 5.0 mi SE 13.8 mph 23.0 mph 0.02 in Rain Light Rain
4:53 PM 37.0 °F 28.5 °F 35.1 °F 93% 29.97 in 7.0 mi SE 13.8 mph 23.0 mph 0.02 in Rain Light Rain
5:49 PM 37.4 °F 29.3 °F 33.8 °F 87% 29.96 in 7.0 mi SE 12.7 mph 24.2 mph 0.02 in Rain Light Rain
5:53 PM 37.0 °F 28.9 °F 34.0 °F 89% 29.96 in 7.0 mi SE 12.7 mph 25.3 mph 0.02 in Rain Light Rain
6:19 PM 37.0 °F 29.3 °F 34.0 °F 89% 29.97 in 7.0 mi SE 11.5 mph 27.6 mph 0.01 in Rain Light Rain
6:53 PM 36.0 °F 28.5 °F 34.0 °F 93% 29.97 in 10.0 mi SE 10.4 mph 21.9 mph 0.02 in Rain Light Rain
7:02 PM 36.0 °F 27.1 °F 34.0 °F 93% 29.96 in 8.0 mi SE 13.8 mph 21.9 mph 0.00 in Rain Light Rain
7:42 PM 36.0 °F 27.5 °F 34.0 °F 93% 29.97 in 7.0 mi SE 12.7 mph 21.9 mph 0.02 in Rain Light Rain
7:53 PM 36.0 °F 28.5 °F 34.0 °F 93% 29.97 in 6.0 mi SE 10.4 mph 21.9 mph 0.03 in Rain Light Rain
8:04 PM 36.0 °F 27.5 °F 34.0 °F 93% 29.97 in 6.0 mi SSE 12.7 mph 20.7 mph 0.00 in Rain Light Rain
8:53 PM 35.1 °F 26.9 °F 34.0 °F 96% 29.97 in 6.0 mi SE 11.5 mph 19.6 mph 0.04 in Rain Light Rain
9:32 PM 35.1 °F 26.9 °F 34.0 °F 96% 29.96 in 6.0 mi SSE 11.5 mph 19.6 mph 0.02 in Rain Light Rain
9:51 PM 35.6 °F 27.1 °F 33.8 °F 93% 29.96 in 9.0 mi SSE 12.7 mph 18.4 mph 0.03 in Rain Light Rain
9:53 PM 35.1 °F 28.6 °F 34.0 °F 96% 29.96 in 9.0 mi SE 8.1 mph 18.4 mph 0.03 in Rain Light Rain
10:40 PM 35.1 °F 26.9 °F 33.1 °F 92% 29.95 in 9.0 mi SSE 11.5 mph 21.9 mph 0.02 in Rain Light Rain
10:53 PM 35.1 °F 27.4 °F 33.1 °F 92% 29.96 in 8.0 mi SSE 10.4 mph 20.7 mph 0.03 in Rain Light Rain
11:53 PM 35.1 °F 27.9 °F 34.0 °F 96% 29.95 in 8.0 mi SE 9.2 mph 19.6 mph 0.03 in Rain Light Rain